User: anonymous   Login
Location: Bruderhein
(53.8035°N, 112.9265°W)
Time: 09:24:39
(UTC+00:00)
Language:

Meteor 1-19 Rocket - Orbit

View from above orbital plane
View from above orbital plane
View from above satellite
View from above satellite

Ground track
Ground track

The orbit data is extracted from the following two-line orbital elements,

1 07493U 74083B   23335.62488366  .00000167  00000-0  89651-4 0  9991
2 07493  81.1618  13.2962 0079156 289.0904  70.1705 14.07741577520261
Epoch (UTC): 01 December 2023 14:59:49
Eccentricity: 0.0079156
inclination: 81.1618°
perigee height: 810 km
apogee height: 924 km
right ascension of ascending node: 13.2962°
argument of perigee: 289.0904°
revolutions per day: 14.07741577
mean anomaly at epoch: 70.1705°
orbit number at epoch: 52026

The dashed part of the orbit path shows where the satellite is in the earth's shadow,  

DLR